• In Czech Republic
  • List of Countries
  • For 7 days
  • Water Temperature
  • Satellite Maps
  • Weather Map
  • Weather Widgets
  • user-avatar
    Login

    Hourly Weather Lezhe

    Today, 11 December, Monday

    Time Temperature Precipitation Wind Pressure Humidity
    00:00 +1°C° 0 mm 4 mps 739 mmHg 80%
    01:00 +1°C° 0 mm 4 mps 739 mmHg 79%
    02:00 +3°C° 0 mm 4 mps 739 mmHg 78%
    03:00 +3°C° 0 mm 4 mps 739 mmHg 78%
    04:00 +3°C° 0 mm 4 mps 739 mmHg 77%
    05:00 +4°C° 0.1 mm 4 mps 739 mmHg 79%
    06:00 +4°C° 0.1 mm 4 mps 739 mmHg 80%
    07:00 +4°C° 0.1 mm 4 mps 738 mmHg 81%
    08:00 +5°C° 0.1 mm 4 mps 739 mmHg 82%
    09:00 +6°C° 0.1 mm 4 mps 739 mmHg 83%
    10:00 +7°C° 0.1 mm 4 mps 739 mmHg 84%
    11:00 +7°C° 0.1 mm 5 mps 739 mmHg 83%
    12:00 +8°C° 0.1 mm 5 mps 738 mmHg 82%
    13:00 +8°C° 0.1 mm 5 mps 738 mmHg 81%
    14:00 +8°C° 0.1 mm 5 mps 738 mmHg 83%
    15:00 +7°C° 0.1 mm 5 mps 738 mmHg 84%
    16:00 +7°C° 0.1 mm 5 mps 738 mmHg 85%
    17:00 +7°C° 0.1 mm 5 mps 738 mmHg 85%
    18:00 +7°C° 0.1 mm 4 mps 739 mmHg 85%
    19:00 +7°C° 0.1 mm 4 mps 739 mmHg 85%
    20:00 +7°C° 0.1 mm 4 mps 739 mmHg 85%
    21:00 +7°C° 0.1 mm 4 mps 739 mmHg 85%
    22:00 +8°C° 0.1 mm 4 mps 739 mmHg 86%
    23:00 +8°C° 0.1 mm 4 mps 739 mmHg 86%

    Tomorrow, 12 December, Tuesday

    Time Temperature Precipitation Wind Pressure Humidity
    00:00 +8°C° 0.1 mm 4 mps 739 mmHg 86%
    01:00 +8°C° 0.1 mm 4 mps 739 mmHg 87%
    02:00 +8°C° 0.1 mm 4 mps 739 mmHg 87%
    03:00 +8°C° 0.1 mm 4 mps 739 mmHg 87%
    04:00 +8°C° 0.1 mm 4 mps 739 mmHg 88%
    05:00 +8°C° 0 mm 4 mps 739 mmHg 88%
    06:00 +8°C° 0 mm 4 mps 740 mmHg 88%
    07:00 +8°C° 0 mm 4 mps 740 mmHg 89%
    08:00 +10°C° 0.1 mm 4 mps 740 mmHg 88%
    09:00 +10°C° 0.1 mm 3 mps 740 mmHg 88%
    10:00 +11°C° 0.1 mm 3 mps 740 mmHg 88%
    11:00 +11°C° 0.1 mm 4 mps 740 mmHg 88%
    12:00 +12°C° 0.1 mm 4 mps 740 mmHg 89%
    13:00 +12°C° 0.1 mm 4 mps 740 mmHg 90%
    14:00 +12°C° 0.2 mm 4 mps 740 mmHg 91%
    15:00 +11°C° 0.2 mm 4 mps 740 mmHg 92%
    16:00 +11°C° 0.2 mm 4 mps 740 mmHg 93%
    17:00 +11°C° 0.2 mm 4 mps 740 mmHg 93%
    18:00 +11°C° 0.2 mm 4 mps 741 mmHg 93%
    19:00 +10°C° 0.2 mm 4 mps 741 mmHg 93%
    20:00 +10°C° 0.1 mm 4 mps 741 mmHg 93%
    21:00 +10°C° 0.1 mm 3 mps 741 mmHg 92%
    22:00 +10°C° 0.1 mm 3 mps 742 mmHg 91%
    23:00 +10°C° 0.1 mm 3 mps 742 mmHg 90%

    Day after tomorrow, 13 December, Wednesday

    Time Temperature Precipitation Wind Pressure Humidity
    00:00 +10°C° 0.1 mm 3 mps 741 mmHg 89%
    01:00 +9°C° 0.1 mm 3 mps 741 mmHg 89%
    02:00 +9°C° 0.1 mm 3 mps 741 mmHg 88%
    03:00 +9°C° 0.1 mm 3 mps 741 mmHg 88%
    04:00 +9°C° 0.1 mm 3 mps 740 mmHg 87%
    05:00 +8°C° 0.1 mm 4 mps 741 mmHg 87%
    06:00 +8°C° 0.1 mm 4 mps 741 mmHg 86%
    07:00 +8°C° 0.1 mm 4 mps 741 mmHg 86%
    08:00 +10°C° 0.2 mm 4 mps 741 mmHg 84%
    09:00 +11°C° 0.2 mm 4 mps 741 mmHg 83%
    10:00 +12°C° 0.2 mm 4 mps 741 mmHg 81%
    11:00 +12°C° 0.4 mm 4 mps 740 mmHg 82%
    12:00 +12°C° 0.4 mm 5 mps 740 mmHg 82%
    13:00 +12°C° 0.4 mm 5 mps 739 mmHg 83%
    14:00 +12°C° 1 mm 5 mps 739 mmHg 86%
    15:00 +12°C° 1 mm 5 mps 739 mmHg 89%
    16:00 +10°C° 1 mm 5 mps 739 mmHg 91%
    17:00 +11°C° 1.3 mm 4 mps 739 mmHg 92%
    18:00 +11°C° 1.3 mm 4 mps 739 mmHg 93%
    19:00 +11°C° 1.3 mm 3 mps 739 mmHg 94%
    20:00 +11°C° 2.4 mm 4 mps 739 mmHg 94%
    21:00 +10°C° 2.4 mm 4 mps 739 mmHg 95%
    22:00 +10°C° 2.4 mm 4 mps 738 mmHg 96%
    23:00 +10°C° 2.2 mm 4 mps 738 mmHg 96%

    14 December, Thursday

    Time Temperature Precipitation Wind Pressure Humidity
    00:00 +10°C° 2.2 mm 4 mps 738 mmHg 96%
    01:00 +10°C° 2.2 mm 4 mps 738 mmHg 96%
    02:00 +10°C° 0.3 mm 3 mps 738 mmHg 95%
    03:00 +9°C° 0.3 mm 3 mps 738 mmHg 95%
    04:00 +9°C° 0.3 mm 2 mps 739 mmHg 94%
    05:00 +8°C° 0.1 mm 2 mps 739 mmHg 94%
    06:00 +8°C° 0.1 mm 2 mps 739 mmHg 94%
    07:00 +8°C° 0.1 mm 2 mps 740 mmHg 94%
    08:00 +8°C° 0 mm 2 mps 740 mmHg 90%
    09:00 +9°C° 0 mm 2 mps 740 mmHg 85%
    10:00 +10°C° 0 mm 2 mps 740 mmHg 81%
    11:00 +10°C° 0 mm 2 mps 739 mmHg 79%
    12:00 +10°C° 0 mm 3 mps 739 mmHg 78%
    13:00 +11°C° 0 mm 3 mps 739 mmHg 76%
    14:00 +10°C° 0 mm 3 mps 739 mmHg 80%
    15:00 +9°C° 0 mm 2 mps 739 mmHg 83%
    16:00 +9°C° 0 mm 2 mps 739 mmHg 87%
    17:00 +8°C° 0 mm 2 mps 739 mmHg 88%
    18:00 +8°C° 0 mm 2 mps 739 mmHg 89%
    19:00 +8°C° 0 mm 2 mps 739 mmHg 89%
    20:00 +8°C° 0 mm 3 mps 739 mmHg 89%
    21:00 +7°C° 0 mm 3 mps 739 mmHg 88%
    22:00 +7°C° 0 mm 3 mps 739 mmHg 88%
    23:00 +7°C° 0 mm 3 mps 739 mmHg 86%

    15 December, Friday

    Time Temperature Precipitation Wind Pressure Humidity
    00:00 +7°C° 0 mm 3 mps 738 mmHg 84%
    01:00 +7°C° 0 mm 3 mps 738 mmHg 82%
    02:00 +7°C° 0 mm 3 mps 738 mmHg 82%
    03:00 +5°C° 0 mm 3 mps 737 mmHg 81%
    04:00 +5°C° 0 mm 3 mps 737 mmHg 80%
    05:00 +7°C° 0 mm 3 mps 737 mmHg 80%
    06:00 +7°C° 0 mm 3 mps 737 mmHg 80%
    07:00 +6°C° 0 mm 4 mps 737 mmHg 81%
    08:00 +7°C° 0.1 mm 4 mps 737 mmHg 80%
    09:00 +8°C° 0.1 mm 4 mps 737 mmHg 80%
    10:00 +8°C° 0.1 mm 4 mps 736 mmHg 80%
    11:00 +8°C° 0.5 mm 5 mps 736 mmHg 81%
    12:00 +8°C° 0.5 mm 5 mps 735 mmHg 83%
    13:00 +8°C° 0.5 mm 6 mps 734 mmHg 85%
    14:00 +8°C° 0.9 mm 6 mps 734 mmHg 87%
    15:00 +9°C° 0.9 mm 6 mps 734 mmHg 88%
    16:00 +9°C° 0.9 mm 6 mps 734 mmHg 90%
    17:00 +9°C° 1.2 mm 6 mps 733 mmHg 90%
    18:00 +9°C° 1.2 mm 7 mps 733 mmHg 91%
    19:00 +9°C° 1.2 mm 7 mps 733 mmHg 91%
    20:00 +9°C° 1.9 mm 7 mps 733 mmHg 91%
    21:00 +9°C° 1.9 mm 7 mps 733 mmHg 91%
    22:00 +9°C° 1.9 mm 7 mps 734 mmHg 91%
    23:00 +9°C° 1 mm 7 mps 733 mmHg 91%

    16 December, Saturday

    Time Temperature Precipitation Wind Pressure Humidity
    00:00 +9°C° 1 mm 7 mps 733 mmHg 90%
    01:00 +10°C° 1 mm 7 mps 732 mmHg 90%
    02:00 +9°C° 0.6 mm 7 mps 732 mmHg 90%
    03:00 +9°C° 0.6 mm 7 mps 731 mmHg 91%
    04:00 +9°C° 0.6 mm 7 mps 731 mmHg 91%
    05:00 +9°C° 0.7 mm 7 mps 731 mmHg 90%
    06:00 +9°C° 0.7 mm 6 mps 731 mmHg 89%
    07:00 +9°C° 0.7 mm 6 mps 730 mmHg 89%
    08:00 +9°C° 0.4 mm 7 mps 730 mmHg 87%
    09:00 +10°C° 0.4 mm 7 mps 730 mmHg 85%
    10:00 +10°C° 0.4 mm 7 mps 730 mmHg 83%
    11:00 +10°C° 2.1 mm 7 mps 729 mmHg 84%
    12:00 +10°C° 2.1 mm 7 mps 729 mmHg 86%
    13:00 +10°C° 2.1 mm 8 mps 729 mmHg 87%
    14:00 +10°C° 2.6 mm 7 mps 728 mmHg 89%
    15:00 +10°C° 2.6 mm 6 mps 728 mmHg 91%
    16:00 +9°C° 2.6 mm 5 mps 728 mmHg 93%
    17:00 +9°C° 4.5 mm 5 mps 727 mmHg 93%
    18:00 +10°C° 4.5 mm 4 mps 727 mmHg 93%
    19:00 +10°C° 4.5 mm 4 mps 727 mmHg 94%
    20:00 +10°C° 4.9 mm 3 mps 726 mmHg 94%
    21:00 +9°C° 4.9 mm 2 mps 726 mmHg 94%
    22:00 +9°C° 4.9 mm 2 mps 726 mmHg 95%
    23:00 +9°C° 3.7 mm 2 mps 725 mmHg 94%
    Show more